Route Details
Walla Walla
Time Location Temp F Dew point F Wind Dir Wind Speed kts
12:29 AM 47.8161 -122.4051 46 39 118 17
12:28 AM 47.8141 -122.4116 46 39 113 18
12:27 AM 47.8123 -122.4182 47 39 115 18
12:26 AM 47.8106 -122.4248 47 39 115 18
12:25 AM 47.8087 -122.4314 47 39 116 18
12:24 AM 47.8065 -122.4378 47 39 118 18
12:23 AM 47.8039 -122.4440 47 39 116 17
12:22 AM 47.8015 -122.4501 47 39 113 17
12:21 AM 47.7991 -122.4562 47 39 104 17
12:20 AM 47.7967 -122.4623 47 39 117 16
12:19 AM 47.7944 -122.4685 47 39 118 18
12:18 AM 47.7923 -122.4746 47 39 120 17
12:17 AM 47.7915 -122.4812 47 39 115 16
12:16 AM 47.7921 -122.4877 47 39 119 13
12:15 AM 47.7936 -122.4923 47 39 126 13
12:14 AM Kingston 47 39 124 13
12:13 AM Kingston 47 39 123 13
12:12 AM Kingston 48 39 120 12
12:11 AM Kingston 47 39 121 11
12:10 AM Kingston 48 39 127 13
12:09 AM Kingston 48 38 125 13
12:08 AM Kingston 48 38 135 14
12:07 AM Kingston 48 38 137 15
12:06 AM Kingston 48 38 136 15
12:05 AM Kingston 48 38 137 16
12:04 AM Kingston 48 38 146 16
12:03 AM Kingston 48 39 141 15
12:02 AM Kingston 48 39 142 15
12:01 AM Kingston 48 38 148 16
12:00 AM Kingston 48 39 134 17
11:59 PM Kingston 48 38 130 17
11:58 PM Kingston 48 39 129 14
11:57 PM Kingston 48 38 126 15
11:56 PM Kingston 48 38 124 16
11:55 PM Kingston 48 38 125 17
11:54 PM Kingston 48 38 129 18
11:53 PM Kingston 48 38 128 16
11:52 PM 47.7934 -122.4918 48 38 128 19
11:51 PM 47.7923 -122.4887 48 38 126 18
11:50 PM 47.7915 -122.4843 49 38 137 18
11:49 PM 47.7921 -122.4785 48 38 140 18
11:48 PM 47.7935 -122.4721 49 38 136 16
11:47 PM 47.7949 -122.4658 48 38 126 20
11:46 PM 47.7967 -122.4596 49 38 118 20
11:45 PM 47.7986 -122.4536 49 38 118 20
11:44 PM 47.8004 -122.4475 49 38 135 19
11:43 PM 47.8022 -122.4413 49 38 130 16
11:42 PM 47.8039 -122.4352 49 37 120 17
11:41 PM 47.8056 -122.4289 48 37 123 18
11:40 PM 47.8073 -122.4227 48 37 130 16
11:39 PM 47.8090 -122.4166 48 37 129 15
11:38 PM 47.8107 -122.4104 48 37 132 13
11:37 PM 47.8125 -122.4042 49 37 132 15
11:36 PM 47.8141 -122.3980 49 36 140 12
11:35 PM 47.8146 -122.3920 49 36 136 11
11:34 PM 47.8139 -122.3875 49 36 117 8
11:33 PM Edmonds 49 36 124 9
11:32 PM Edmonds 49 36 123 10
11:31 PM Edmonds 49 36 145 10
11:30 PM Edmonds 49 36 118 11
11:29 PM Edmonds 49 36 131 12
11:28 PM Edmonds 49 35 151 10
11:27 PM Edmonds 49 35 144 12
11:26 PM Edmonds 49 35 121 10
11:25 PM Edmonds 49 35 139 14
11:24 PM Edmonds 49 35 145 14
11:23 PM Edmonds 50 35 137 16
11:22 PM Edmonds 50 35 135 11
11:21 PM Edmonds 50 35 145 12
11:20 PM Edmonds 50 35 140 14
11:19 PM Edmonds 50 35 134 11
11:18 PM Edmonds 50 35 131 11
11:17 PM Edmonds 50 35 147 11
11:16 PM Edmonds 50 35 146 9
11:15 PM Edmonds 50 35 130 8
11:14 PM Edmonds 50 35 143 8
11:13 PM Edmonds 50 34 131 6
11:12 PM Edmonds 50 34 135 10
11:11 PM 47.8137 -122.3862 51 34 176 13
11:10 PM 47.8141 -122.3878 51 33 150 16
11:09 PM 47.8146 -122.3904 51 34 114 14
11:08 PM 47.8152 -122.3935 51 33 149 17
11:07 PM 47.8163 -122.3978 51 33 152 18
11:06 PM 47.8173 -122.4034 51 33 140 19
11:05 PM 47.8163 -122.4093 51 34 168 24
11:04 PM 47.8130 -122.4141 51 34 145 22
11:03 PM 47.8094 -122.4185 51 33 132 22
11:02 PM 47.8058 -122.4229 51 34 123 23
11:01 PM 47.8022 -122.4274 51 34 150 26
11:00 PM 47.7991 -122.4321 50 35 143 27
10:59 PM 47.7972 -122.4382 50 35 128 26
10:58 PM 47.7959 -122.4448 50 35 136 22
10:57 PM 47.7947 -122.4514 50 37 164 16
10:56 PM 47.7936 -122.4580 50 37 168 18
10:55 PM 47.7926 -122.4648 50 36 174 20
10:54 PM 47.7917 -122.4714 50 35 168 20
10:53 PM 47.7915 -122.4781 50 36 165 17
10:52 PM 47.7921 -122.4845 50 35 161 16
10:51 PM 47.7929 -122.4899 50 33 154 13
10:50 PM Kingston 50 35 156 8
10:49 PM Kingston 50 34 175 6
10:48 PM Kingston 50 35 163 6
10:47 PM Kingston 50 34 194 7
10:46 PM Kingston 50 35 188 6
10:45 PM Kingston 50 35 184 6
10:44 PM Kingston 50 35 169 6
10:43 PM Kingston 50 35 215 5
10:42 PM Kingston 50 35 198 5
10:41 PM Kingston 50 35 182 5
10:40 PM Kingston 50 35 216 6
10:39 PM Kingston 51 36 169 6
10:38 PM Kingston 51 37 188 8
10:37 PM 47.7932 -122.4909 51 38 197 5
10:36 PM 47.7920 -122.4874 51 38 185 7
10:35 PM 47.7916 -122.4819 51 37 179 11
10:34 PM 47.7917 -122.4747 51 37 164 13
10:33 PM 47.7932 -122.4677 51 37 160 13
10:32 PM 47.7948 -122.4608 51 37 163 13
10:31 PM 47.7967 -122.4539 50 37 162 13
10:30 PM 47.7988 -122.4473 50 38 159 12
10:29 PM 47.8009 -122.4407 50 37 168 12
10:28 PM 47.8029 -122.4339 50 38 158 11
10:27 PM 47.8049 -122.4270 50 38 162 11
10:26 PM 47.8069 -122.4200 50 38 161 10
10:25 PM 47.8090 -122.4131 50 38 165 10
10:24 PM 47.8111 -122.4061 50 38 159 9
10:23 PM 47.8132 -122.3994 50 36 165 9
10:22 PM 47.8148 -122.3928 50 35 163 9
10:21 PM 47.8142 -122.3876 50 36 182 4
10:20 PM Edmonds 50 35 207 5
10:19 PM Edmonds 50 35 178 5
10:18 PM Edmonds 50 36 187 5
10:17 PM Edmonds 50 36 197 5
10:16 PM Edmonds 50 36 197 5
10:15 PM Edmonds 49 35 202 6
10:14 PM Edmonds 49 36 185 7
10:13 PM Edmonds 49 36 199 6
10:12 PM Edmonds 49 36 193 6
10:11 PM Edmonds 49 37 190 6
10:10 PM Edmonds 49 37 213 5
10:09 PM Edmonds 49 37 213 6
10:08 PM Edmonds 49 37 207 6
10:07 PM Edmonds 49 37 201 6
10:06 PM Edmonds 49 36 213 6
10:05 PM Edmonds 49 37 205 7
10:04 PM 47.8139 -122.3870 49 37 207 8
10:03 PM 47.8144 -122.3894 49 37 204 10
10:02 PM 47.8151 -122.3927 49 38 188 10
10:01 PM 47.8159 -122.3972 49 38 171 13
10:00 PM 47.8163 -122.4033 49 38 178 13
9:59 PM 47.8144 -122.4098 49 37 180 11
9:58 PM 47.8120 -122.4161 49 37 187 11
9:57 PM 47.8096 -122.4224 49 37 186 11
9:56 PM 47.8071 -122.4287 49 37 187 11
9:55 PM 47.8045 -122.4351 49 37 189 8
9:54 PM 47.8020 -122.4415 49 36 186 8
9:53 PM 47.7995 -122.4480 49 36 190 7
9:52 PM 47.7970 -122.4544 49 36 180 7
9:51 PM 47.7946 -122.4609 49 36 174 6
9:50 PM 47.7925 -122.4675 49 35 164 8
9:49 PM 47.7916 -122.4746 49 34 183 10
9:48 PM 47.7921 -122.4818 49 34 192 10
9:47 PM 47.7930 -122.4884 49 35 194 6
9:46 PM 47.7942 -122.4925 49 35 221 6
9:45 PM Kingston 49 35 226 5
9:44 PM Kingston 49 35 231 6
9:43 PM Kingston 49 35 196 5
9:42 PM Kingston 49 35 220 4
9:41 PM Kingston 49 35 200 6
9:40 PM Kingston 50 36 208 6
9:39 PM Kingston 50 36 204 5
9:38 PM Kingston 50 36 231 4
9:37 PM Kingston 50 36 231 3
9:36 PM Kingston 50 36 207 4
9:35 PM Kingston 50 36 228 5
9:34 PM Kingston 50 36 222 4
9:33 PM Kingston 50 36 239 5
9:32 PM Kingston 50 36 225 4
9:31 PM Kingston 50 36 227 6
9:30 PM Kingston 50 36 231 5